This is the latest recevied weather packets stored in our database for station/object AK4NG. If no packets are shown the sender has not sent any weather packets the latest 10 day(s).
| Time | Temp. | Humidity | Pressure | Rain* | Wind** | Luminosity | Snow |
|---|---|---|---|---|---|---|---|
| 1778161997 | 22.78° C | 96% | 1013.1 hPa | 0 mm | - | 53 W/m² | - |
| 1778161694 | 22.78° C | 96% | 1013.3 hPa | 0 mm | - | 133 W/m² | - |
| 1778161390 | 22.78° C | 96% | 1013.1 hPa | 0 mm | - | 127 W/m² | - |
| 1778161085 | 22.78° C | 96% | 1013.3 hPa | 0 mm | - | 107 W/m² | - |
| 1778160782 | 22.78° C | 96% | 1013.1 hPa | 0 mm | - | 143 W/m² | - |
| 1778160480 | 22.78° C | 97% | 1013 hPa | 0 mm | - | 138 W/m² | - |
| 1778160176 | 22.78° C | 98% | 1012.9 hPa | 0 mm | - | 135 W/m² | - |
| 1778159874 | 22.22° C | 98% | 1013 hPa | 0 mm | - | 179 W/m² | - |
| 1778159570 | 22.22° C | 98% | 1012.8 hPa | 0 mm | - | 143 W/m² | - |
| 1778159267 | 21.67° C | 98% | 1012.6 hPa | 0 mm | - | 144 W/m² | - |
| 1778158965 | 21.67° C | 98% | 1012.8 hPa | 0 mm | - | 60 W/m² | - |
| 1778158663 | 21.67° C | 98% | 1012.8 hPa | 0 mm | - | 104 W/m² | - |
| 1778158361 | 21.67° C | 98% | 1013.2 hPa | 0 mm | - | 52 W/m² | - |
| 1778158057 | 21.67° C | 98% | 1013.2 hPa | 0 mm | - | 52 W/m² | - |
| 1778157754 | 21.67° C | 98% | 1013.3 hPa | 0 mm | - | 32 W/m² | - |
| 1778157452 | 21.11° C | 98% | 1013.1 hPa | 0 mm | - | 36 W/m² | - |
| 1778157150 | 21.11° C | 98% | 1013.1 hPa | 0 mm | - | 19 W/m² | - |
| 1778156845 | 21.11° C | 98% | 1013 hPa | 0 mm | - | 14 W/m² | - |
| 1778156541 | 21.11° C | 98% | 1012.5 hPa | 0 mm | - | 8 W/m² | - |
| 1778156236 | 21.11° C | 98% | 1012.4 hPa | 0 mm | - | 8 W/m² | - |
| 1778155933 | 21.11° C | 98% | 1012.3 hPa | 0 mm | - | 8 W/m² | - |
| 1778155629 | 21.11° C | 98% | 1012.3 hPa | 0 mm | - | 5 W/m² | - |
| 1778155326 | 21.11° C | 98% | 1012.4 hPa | 0 mm | - | 10 W/m² | - |
| 1778155022 | 21.11° C | 98% | 1012.2 hPa | 0 mm | - | 11 W/m² | - |
| 1778154718 | 21.11° C | 97% | 1012 hPa | 0 mm | - | 16 W/m² | - |
* Rain latest hour (hover to see other rain measurements)
** Current wind speed in m/s (hover to see current wind gust speed)